Date,TemperatureHighF,TemperatureAvgF,TemperatureLowF,DewpointHighF,DewpointAvgF,DewpointLowF,HumidityHigh,HumidityAvg,HumidityLow,PressureMaxIn,PressureMinIn,WindSpeedMaxMPH,WindSpeedAvgMPH,GustSpeedMaxMPH,PrecipitationSumIn
2014-1-3,27.3,20.8,13.5,2.9,-4.0,-15.5,43,33,23,30.09,29.82,7,2,10,0.00
2014-1-4,43.7,32.4,19.9,9.4,4.2,1.0,46,31,20,29.82,29.59,12,4,17,0.00
2014-1-5,55.9,40.7,21.2,43.0,23.1,4.3,88,51,28,29.62,29.09,19,3,19,0.37
2014-1-6,21.2,5.7,-0.6,5.0,-10.8,-16.8,51,46,45,30.06,29.50,17,5,17,0.37
2014-1-7,19.0,9.4,-0.2,-3.6,-11.4,-16.5,45,38,25,30.12,29.94,10,3,10,0.00
2014-1-8,36.9,26.5,12.7,9.9,1.7,-8.6,47,34,27,30.06,29.94,9,2,9,0.00
2014-1-9,43.7,36.4,31.1,27.7,17.9,9.7,70,49,28,30.06,29.82,10,1,10,0.04
2014-1-10,53.6,44.8,36.5,48.0,36.6,27.5,84,73,65,29.85,29.29,13,2,13,0.17
2014-1-11,52.9,46.5,36.9,52.2,36.8,25.3,98,71,44,29.44,29.12,8,3,11,1.29
2014-1-12,52.9,39.6,33.8,31.6,28.2,19.5,78,66,27,29.68,29.23,6,2,11,1.29
2014-1-13,53.4,50.3,44.1,48.2,34.6,17.0,93,61,27,29.65,29.29,12,3,15,0.13
2014-1-14,54.9,43.2,32.0,43.5,24.6,12.7,87,50,28,29.59,29.35,12,3,13,0.00
2014-1-15,34.5,29.8,22.1,13.1,7.0,3.9,52,38,30,29.71,29.59,9,2,10,0.00
2014-1-16,37.9,33.1,21.7,28.8,17.0,6.6,78,53,31,29.62,29.35,11,3,13,0.04
2014-1-17,34.3,24.6,18.5,30.9,8.5,-1.0,87,51,33,29.71,29.35,9,2,10,0.00
2014-1-18,37.4,30.3,19.0,26.5,10.5,5.6,65,44,31,29.68,29.35,14,3,14,0.00
2014-1-19,39.0,36.4,28.9,26.7,15.1,10.6,64,42,33,29.65,29.38,12,4,12,0.00
2014-1-20,52.7,43.2,35.6,20.6,17.1,12.9,54,35,23,29.50,29.35,8,2,9,0.21
2014-1-21,35.6,19.7,10.4,27.4,-2.7,-15.6,75,38,23,29.82,29.35,20,4,23,0.00
2014-1-22,23.5,17.9,7.5,10.0,-4.3,-18.1,56,37,29,29.79,29.59,11,3,11,0.00
2014-1-23,17.8,11.0,6.1,-1.6,-13.6,-20.7,43,32,23,30.27,29.79,12,3,13,0.21
2014-1-24,27.1,18.8,4.1,-3.2,-10.6,-22.5,37,26,23,30.27,29.38,16,5,20,0.00
2014-1-25,44.8,29.1,18.9,20.4,3.7,-12.8,79,37,18,29.59,29.17,22,4,22,0.08
2014-1-26,51.6,40.5,20.8,24.9,11.9,-6.9,43,31,21,29.53,29.14,30,3,30,0.00
2014-1-27,48.4,17.4,8.2,24.6,-13.2,-21.1,41,24,22,30.03,29.26,18,5,30,0.00
2014-1-28,18.3,10.6,4.3,-13.3,-19.2,-24.5,24,24,23,30.06,29.91,9,2,10,0.00
2014-1-29,29.3,19.6,7.9,-5.0,-11.4,-21.4,34,24,20,29.97,29.82,8,1,10,0.00
2014-1-30,41.0,33.5,14.7,0.8,-2.7,-11.8,34,21,18,29.85,29.53,10,2,11,0.00
2014-1-31,48.7,41.5,32.4,9.2,4.1,-4.2,26,21,19,29.74,29.59,8,1,8,0.00